EW9798 Weather Reports


Display with metric or nautical units.
time (UTC)temp
F
wind
direction
speed
MPH
gust
MPH
rain 1hr
in
rain 24hr
in
rain mn
in
humidity
%
barometer
mb
20260903123030 46 153 0.0 3.0 0.00 0.32 0.01 98 1012.8
20260903120031 47 170 0.0 4.0 0.00 0.32 0.01 98 1012.7
20260903113030 47 155 0.0 4.0 0.01 0.32 0.01 98 1012.7
20260903111530 47 149 1.0 4.0 0.01 0.32 0.01 98 1012.6
20260903110030 47 132 2.0 5.0 0.01 0.32 0.00 98 1012.5
20260903104532 48 135 1.0 4.0 0.00 0.31 0.00 98 1012.4
20260903103032 49 145 0.0 3.0 0.00 0.31 0.00 98 1012.3
20260903100031 50 137 1.0 3.0 0.00 0.31 0.00 98 1012.2
20260903094532 50 177 0.0 2.0 0.00 0.31 0.00 98 1012.2
20260903093107 50 97 0.0 1.0 0.00 0.31 0.00 98 1012.2
20260903091531 50 90 0.0 3.0 0.00 0.31 0.00 98 1012.2
20260903090106 50 17 1.0 4.0 0.00 0.31 0.00 98 1012.2
20260903084529 50 138 1.0 4.0 0.00 0.31 0.00 98 1012.1
20260903083030 50 128 2.0 4.0 0.00 0.31 0.00 98 1012.1
20260903081607 50 24 0.0 3.0 0.00 0.31 0.00 98 1012.0
20260903080029 50 138 1.0 4.0 0.00 0.31 0.00 97 1012.0
20260903074532 49 115 2.0 6.0 0.00 0.31 0.00 97 1011.9
20260903073105 49 201 1.0 4.0 0.00 0.31 0.00 97 1011.5
20260903071529 50 177 0.0 3.0 0.00 0.31 0.00 97 1011.5
20260903064529 51 49 0.0 3.0 0.00 0.31 0.31 97 1011.7
20260903063145 51 33 0.0 3.0 0.00 0.31 0.31 97 1011.6
20260903061606 51 101 0.0 3.0 0.00 0.31 0.31 97 1011.7
20260903060030 51 147 1.0 4.0 0.00 0.31 0.31 97 1011.7
20260903053030 53 285 1.0 5.0 0.00 0.31 0.31 96 1011.4
20260903051531 53 166 1.0 3.0 0.00 0.31 0.31 95 1011.4
20260903050030 53 198 0.0 3.0 0.00 0.31 0.31 95 1011.4
20260903044530 54 134 4.0 6.0 0.00 0.31 0.31 95 1011.2
20260903043029 55 114 3.0 7.0 0.00 0.31 0.31 95 1011.0
20260903041531 55 158 3.0 7.0 0.00 0.31 0.31 96 1010.8
20260903040029 55 167 2.0 5.0 0.00 0.31 0.31 97 1010.5
20260903034606 56 128 1.0 4.0 0.01 0.31 0.31 96 1010.4
20260903033031 56 133 0.0 1.0 0.05 0.31 0.31 96 1010.3
20260903031532 56 49 1.0 5.0 0.07 0.31 0.31 96 1010.3
20260903030032 57 36 1.0 4.0 0.11 0.31 0.30 96 1010.0
20260903024536 58 160 0.0 3.0 0.14 0.30 0.26 96 1010.1
20260903023030 58 254 0.0 2.0 0.10 0.26 0.24 96 1010.1
20260903020030 58 310 0.0 4.0 0.04 0.20 0.16 95 1009.6
20260903014607 58 39 0.0 2.0 0.02 0.16 0.16 95 1009.3
20260903013031 58 45 0.0 0.0 0.03 0.16 0.16 95 1009.4
20260903011605 58 45 0.0 0.0 0.03 0.16 0.16 95 1009.4
20260903004532 58 45 1.0 3.0 0.03 0.14 0.13 95 1009.5
20260903003104 58 40 1.0 4.0 0.02 0.13 0.13 94 1009.6
20260903001603 58 11 1.0 4.0 0.02 0.13 0.12 94 1009.5
20260903000031 59 349 2.0 4.0 0.02 0.12 0.11 94 1009.4
20260902234533 59 3 2.0 5.0 0.01 0.11 0.11 94 1009.4
20260902233032 59 3 2.0 5.0 0.01 0.11 0.11 94 1009.5
20260902231530 60 340 3.0 6.0 0.01 0.11 0.10 94 1009.6
20260902230033 60 332 3.0 5.0 0.01 0.10 0.10 94 1009.6
20260902224528 59 335 2.0 5.0 0.02 0.10 0.10 94 1009.5
20260902223030 60 310 2.0 5.0 0.02 0.10 0.10 94 1009.6
20260902221532 60 277 1.0 4.0 0.03 0.10 0.09 93 1009.5
20260902214534 60 262 1.0 4.0 0.04 0.08 0.08 92 1009.3
20260902213032 60 301 2.0 7.0 0.05 0.08 0.07 92 1009.2
20260902211531 60 308 3.0 8.0 0.05 0.07 0.05 91 1009.1
20260902204533 60 66 0.0 4.0 0.02 0.04 0.03 89 1009.5
20260902203055 60 36 2.0 6.0 0.02 0.03 0.02 87 1009.6
20260902194529 62 342 0.0 4.0 0.02 0.02 0.01 83 1009.5
20260902193031 63 282 0.0 2.0 0.01 0.01 0.00 78 1009.4
20260902191531 64 253 0.0 4.0 0.00 0.00 0.00 73 1009.3
20260902190109 64 241 1.0 5.0 0.00 0.00 0.00 70 1009.2
20260902184530 65 233 3.0 5.0 0.00 0.00 0.00 68 1009.1
20260902183031 65 243 1.0 7.0 0.00 0.00 0.00 69 1009.1
20260902181531 64 273 1.0 4.0 0.00 0.00 0.00 70 1009.1
20260902180030 64 278 2.0 6.0 0.00 0.00 0.00 70 1009.3
20260902174531 65 289 3.0 7.0 0.00 0.00 0.00 69 1009.2
20260902173107 65 302 4.0 8.0 0.00 0.00 0.00 70 1009.2
20260902170030 63 284 2.0 6.0 0.00 0.00 0.00 73 1009.5
20260902163029 60 344 1.0 4.0 0.00 0.00 0.00 79 1010.0
20260902161532 60 315 0.0 3.0 0.00 0.00 0.00 81 1010.4
20260902160106 59 357 0.0 4.0 0.00 0.00 0.00 81 1010.5
20260902154605 59 42 1.0 4.0 0.00 0.00 0.00 81 1010.7
20260902153109 58 42 3.0 6.0 0.00 0.00 0.00 84 1010.7
20260902151531 57 49 2.0 5.0 0.00 0.00 0.00 85 1010.8
20260902150030 57 43 2.0 6.0 0.00 0.00 0.00 85 1011.0
20260902140033 54 39 4.0 9.0 0.00 0.00 0.00 90 1011.3
20260902134529 52 51 4.0 8.0 0.00 0.00 0.00 92 1011.4
20260902133033 51 83 3.0 7.0 0.00 0.00 0.00 91 1011.5
20260902131533 51 99 4.0 6.0 0.00 0.00 0.00 91 1011.5
20260902130032 52 100 4.0 6.0 0.00 0.00 0.00 91 1011.5
20260902124533 52 114 4.0 7.0 0.00 0.00 0.00 91 1011.5